Lid_Strength_Index
2 2 2 3 3 3 3 4 4 7 6 4 4 1 1 1 1 0 1 5 7 7 7 6 5 3 2 2 2 1 -0 -0 -0 -0 0 0 0 -0
2 3 3 3 3 3 3 3 4 4 6 4 3 2 1 0 1 1 1 4 7 8 8 7 7 5 4 3 3 3 1 1 1 1 1 0 0 -0
3 4 4 4 3 3 3 3 3 3 5 3 3 2 2 2 2 2 2 3 3 8 8 8 8 7 5 5 5 4 3 2 2 1 1 1 0 0
4 3 4 4 5 3 3 2 2 2 3 4 3 3 3 3 3 4 3 3 3 7 8 8 9 8 7 7 6 6 5 5 4 4 3 2 1 1
8 8 9 7 4 3 2 2 2 2 2 3 4 3 3 4 5 5 5 4 4 6 9 9 9 8 8 8 7 6 7 7 6 6 5 5 4 3
10 10 10 10 11 11 9 8 5 2 2 3 3 3 4 4 5 4 6 7 5 8 8 8 8 9 9 8 8 7 7 7 7 7 7 7 7 6
12 12 12 11 11 12 11 10 10 8 6 3 4 3 4 5 5 5 3 3 7 8 7 8 8 7 8 9 8 8 8 7 7 7 7 7 7 7
14 14 13 12 12 14 14 14 14 11 9 7 5 4 4 4 4 4 4 8 6 9 8 9 10 9 9 8 9 9 9 8 8 7 7 8 7 8
16 15 13 13 14 16 15 14 13 12 13 8 8 5 3 4 4 4 3 4 4 10 6 8 14 11 13 12 11 11 10 9 8 8 8 8 9 9
17 16 16 16 16 17 15 14 13 12 10 9 8 6 4 2 2 2 2 6 13 13 11 11 15 14 15 14 12 11 11 11 10 8 8 8 9 9
18 18 18 18 17 16 16 15 15 14 11 11 10 9 8 8 6 3 9 9 11 13 13 11 15 15 15 15 15 12 12 11 11 10 10 9 9 10
18 18 18 18 17 17 17 17 18 16 16 15 13 10 9 7 9 5 3 6 11 13 14 12 15 14 14 16 15 15 15 13 12 11 10 10 11 11
20 20 19 18 18 17 17 18 18 16 16 14 12 10 9 8 6 6 4 5 6 11 12 11 15 15 14 16 16 16 15 15 15 13 11 10 10 11
21 21 20 18 18 18 18 18 18 17 16 15 14 13 12 11 10 9 10 7 5 6 11 9 14 12 14 18 17 16 16 15 15 16 15 13 12 12
20 20 19 19 19 18 17 17 17 17 17 17 17 16 14 13 14 12 14 14 14 14 13 10 10 11 10 14 17 17 17 17 16 16 16 15 15 15
21 21 21 20 22 21 20 19 18 18 18 18 18 17 15 14 14 13 13 14 14 14 14 14 13 12 12 13 14 17 17 18 16 16 17 17 16 15
23 22 23 23 23 22 22 20 19 19 19 18 18 18 18 16 16 14 13 14 14 15 16 15 14 14 15 14 16 15 17 17 17 17 17 18 17 16
24 25 25 25 25 25 24 23 21 21 19 18 18 18 18 18 17 16 15 14 14 15 16 16 15 15 16 16 15 16 17 17 18 17 17 18 19 17
25 26 26 26 26 25 25 24 23 21 20 20 19 19 19 19 19 18 17 16 16 16 16 15 14 13 16 17 18 15 17 18 18 18 17 17 18 17
25 26 26 26 26 26 25 25 24 22 21 20 21 20 19 19 19 19 19 18 17 17 18 17 17 16 15 18 19 18 16 17 18 19 19 18 18 17
25 26 26 26 25 25 25 25 24 23 22 21 20 20 20 19 19 19 19 20 19 19 20 19 18 16 16 16 18 18 17 15 16 19 19 20 20 20
23 24 25 25 25 25 25 25 24 23 22 21 20 19 19 19 19 19 19 20 19 19 19 18 17 17 17 19 20 21 20 19 17 17 17 18 20 23
23 23 24 24 25 25 24 25 25 24 23 21 19 19 18 18 17 17 18 18 19 19 19 20 19 18 19 20 21 22 22 21 21 21 19 17 17 18